User: anonymous   Login
Location: Unspecified
(0.0000°N, 0.0000°E)
Time: 09:20:50
(UTC+00:00)
Language:

HODOYOSHI 4 - Orbit

View from above orbital plane
View from above orbital plane
View from above satellite
View from above satellite

Ground track
Ground track

The orbit data is extracted from the following two-line orbital elements,

1 40011U 14033B   17086.80157802 +.00000131 +00000-0 +23783-4 0  9992
2 40011 097.8944 346.3560 0026496 172.0369 188.1272 14.80839243149714
Epoch (UTC): 27 March 2017 19:14:16
Eccentricity: 0.0026496
inclination: 97.8944°
perigee height: 608 km
apogee height: 645 km
right ascension of ascending node: 346.3560°
argument of perigee: 172.0369°
revolutions per day: 14.80839243
mean anomaly at epoch: 188.1272°
orbit number at epoch: 14971

The dashed part of the orbit path shows where the satellite is in the earth's shadow,  

DLR